Location: *
(51.8167°N, 12.5000°E)
Time: 04:40:00
(UTC+00:00)

Cosmos 1140 Rocket - Pass Details

Date: 16 September 2019
Orbit: 745 x 767 km, 74.1° (Epoch: 17 October)

Event Time Altitude Azimuth Distance (km) Brightness Sun altitude
Rises 19:57:37 0° 332° (NNW) 3,229 7.9 -22.8°
Reaches altitude 10° 20:00:03 10° 327° (NNW) 2,296 6.9 -23.1°
Maximum altitude 20:05:04 52° 253° (WSW) 936 4.0 -23.7°
Enters shadow 20:06:48 36° 200° (SSW) 1,177 4.2 -24.0°
